Location: Zagreb
(45.8150°N, 15.9819°E)
Time: 17:27:34
(UTC+02:00)

Tiangong - Visible Passes

Search period start: 30 September 2023 00:00
Search period end: 10 October 2023 00:00
Orbit: 372 x 384 km, 41.5° (Epoch: 30 September)

Date Brightness Start Highest point End Pass type
(mag) Time Alt. Az. Time Alt. Az. Time Alt. Az.
30 Sep -0.6 20:01:41 10° SSW 20:04:07 21° SSE 20:04:07 21° SSE visible
01 Oct -0.2 20:35:57 10° WSW 20:37:29 22° SW 20:37:29 22° SW visible
02 Oct -0.8 19:34:27 10° SW 19:37:10 27° SSE 19:38:39 19° ESE visible
02 Oct 1.1 21:10:36 10° WSW 21:10:43 11° WSW 21:10:43 11° WSW visible
03 Oct -1.3 20:08:52 10° WSW 20:11:47 36° S 20:11:47 36° S visible
04 Oct -1.0 19:07:10 10° WSW 19:10:02 32° S 19:12:48 11° ESE visible
04 Oct 0.2 20:43:32 10° WSW 20:44:52 20° WSW 20:44:52 20° WSW visible
05 Oct -1.2 19:41:40 10° WSW 19:44:35 36° S 19:45:49 25° SE visible
06 Oct -0.6 20:16:19 10° WSW 20:18:48 27° SSW 20:18:48 27° SSW visible
07 Oct -0.9 19:14:19 10° WSW 19:17:12 33° S 19:19:42 12° SE visible
07 Oct 0.9 20:51:24 10° WSW 20:51:46 12° WSW 20:51:46 12° WSW visible
08 Oct -0.3 19:49:02 10° WSW 19:51:33 22° SSW 19:52:40 18° SSE visible
09 Oct 0.7 20:24:45 10° SW 20:25:40 11° SSW 20:25:40 11° SSW visible
